CW5306 Weather Reports


time (UTC)temp
F
wind
direction
speed
knots
gust
knots
rain 1hr
in
rain 24hr
in
rain mn
in
humidity
%
barometer
mb
20260902204740 80 113 4.3 12.2 0.01 0.51 0.51 87 1015.4
20260902204500 80 106 7.0 12.2 0.01 0.51 0.51 87 1015.7
20260902203728 80 89 7.8 11.3 0.01 0.51 0.51 87 1015.5
20260902203235 79 107 7.0 12.2 0.01 0.51 0.51 88 1015.6
20260902203229 79 148 3.5 13.0 0.01 0.51 0.51 88 1015.5
20260902202500 79 102 6.1 12.2 0.01 0.51 0.51 88 1015.8
20260902201730 78 104 5.2 13.9 0.01 0.51 0.51 89 1015.6
20260902201229 78 93 3.5 14.8 0.01 0.51 0.51 89 1015.6
20260902200729 77 64 6.1 16.5 0.01 0.51 0.51 89 1015.6
20260902200229 77 109 9.6 25.2 0.01 0.51 0.51 88 1015.6
20260902195728 77 105 9.6 25.2 0.01 0.51 0.51 89 1015.7
20260902195229 77 63 9.6 20.9 0.00 0.51 0.50 89 1015.9
20260902194729 77 115 5.2 17.4 0.00 0.50 0.50 90 1015.7
20260902194229 78 69 7.8 13.9 0.00 0.50 0.50 91 1015.6
20260902193729 78 98 2.6 13.9 0.00 0.50 0.50 91 1015.8
20260902193228 77 100 3.5 16.5 0.01 0.50 0.50 91 1015.8
20260902193001 77 95 8.7 20.0 0.02 0.50 0.50 91 1015.6
20260902192229 77 115 8.7 20.0 0.03 0.50 0.50 92 1015.7
20260902191729 76 67 7.8 20.0 0.07 0.50 0.50 92 1015.8
20260902191228 76 35 8.7 16.5 0.11 0.50 0.50 92 1015.6
20260902190729 76 44 7.0 17.4 0.15 0.50 0.50 92 1015.6
20260902190228 76 58 9.6 18.2 0.19 0.50 0.50 92 1015.8
20260902185728 76 62 9.6 20.9 0.26 0.50 0.50 92 1015.6
20260902185229 75 114 7.0 20.9 0.35 0.50 0.50 92 1015.4
20260902184730 75 87 11.3 17.4 0.42 0.50 0.50 92 1015.5
20260902184229 75 90 12.2 18.2 0.43 0.50 0.50 93 1015.6
20260902183729 75 77 8.7 21.7 0.44 0.50 0.50 93 1015.8
20260902183229 75 73 9.6 24.3 0.44 0.50 0.49 93 1015.6
20260902182728 75 59 9.6 24.3 0.44 0.49 0.48 93 1015.5
20260902182228 76 50 12.2 18.2 0.42 0.47 0.48 93 1015.7
20260902181728 76 87 7.0 16.5 0.39 0.44 0.44 93 1015.5
20260902181229 76 70 4.3 16.5 0.34 0.39 0.39 92 1015.9
20260902180729 76 55 5.2 28.7 0.30 0.35 0.35 92 1015.5
20260902180231 76 135 7.0 28.7 0.26 0.31 0.31 92 1015.6
20260902175737 76 84 9.6 14.8 0.10 0.15 0.15 92 1015.4
20260902175730 76 116 6.1 17.4 0.20 0.25 0.24 92 1015.6
20260902175001 77 91 10.4 14.8 0.03 0.08 0.09 91 1015.3
20260902174229 77 75 2.6 13.9 0.02 0.07 0.07 91 1015.1
20260902173729 77 84 5.2 17.4 0.01 0.06 0.06 91 1015.2
20260902173500 77 113 6.1 17.4 0.00 0.06 0.05 91 1015.4
20260902173000 77 71 5.2 14.8 0.00 0.05 0.05 91 1015.2
20260902172501 77 77 11.3 16.5 0.00 0.05 0.05 91 1015.1
20260902171731 77 119 7.0 16.5 0.00 0.05 0.05 91 1015.3
20260902171229 77 85 4.3 20.9 0.00 0.05 0.05 91 1015.1
20260902171000 77 98 9.6 20.9 0.00 0.05 0.05 91 1014.8
20260902170228 77 103 7.8 16.5 0.00 0.05 0.05 91 1014.9
20260902165729 77 107 7.0 17.4 0.00 0.05 0.05 91 1015.0
20260902165229 77 78 7.8 17.4 0.00 0.05 0.05 91 1014.9
20260902164959 77 98 11.3 14.8 0.00 0.05 0.05 91 1014.9
20260902164229 77 110 9.6 16.5 0.00 0.05 0.05 91 1014.5
20260902163729 77 70 9.6 20.0 0.00 0.05 0.05 91 1014.7
20260902163500 77 87 5.2 20.0 0.01 0.05 0.05 91 1014.6
20260902162729 77 96 8.7 20.0 0.01 0.05 0.05 91 1014.6
20260902162228 77 57 8.7 20.9 0.02 0.05 0.05 91 1014.6
20260902161729 77 56 5.2 20.9 0.03 0.05 0.05 91 1014.5
20260902161230 76 76 9.6 18.2 0.03 0.05 0.05 92 1014.6
20260902161000 76 73 10.4 17.4 0.03 0.05 0.05 92 1014.5
20260902160459 76 58 8.7 14.8 0.03 0.05 0.05 92 1014.5
20260902160000 76 44 7.8 14.8 0.03 0.05 0.05 92 1014.3
20260902155229 76 77 4.3 17.4 0.03 0.05 0.05 92 1014.4
20260902154735 76 112 8.7 17.4 0.03 0.05 0.05 92 1014.5
20260902154729 76 113 7.0 17.4 0.03 0.05 0.05 92 1014.2
20260902153734 76 104 3.5 18.2 0.04 0.04 0.04 92 1014.3
20260902153728 76 72 8.7 18.2 0.03 0.05 0.05 92 1014.4
20260902152730 76 47 12.2 22.6 0.03 0.04 0.04 92 1014.0
20260902152230 76 99 9.6 22.6 0.02 0.02 0.02 91 1014.2
20260902152003 76 60 13.0 20.0 0.01 0.02 0.02 91 1014.0
20260902151229 76 77 7.0 16.5 0.01 0.02 0.02 91 1013.8
20260902150729 76 60 7.0 16.5 0.02 0.02 0.02 92 1013.9
20260902150500 76 77 9.6 13.9 0.02 0.02 0.02 92 1013.6
20260902145732 76 98 5.2 13.9 0.02 0.02 0.02 91 1014.0
20260902145500 76 81 8.7 20.9 0.02 0.02 0.02 91 1014.1
20260902144729 76 84 7.8 20.9 0.02 0.02 0.02 91 1014.0
20260902144459 76 55 9.6 20.9 0.02 0.02 0.02 91 1014.0
20260902144336 76 128 9.6 17.4 0.02 0.02 0.02 91 1013.8
20260902143500 76 113 3.5 17.4 0.00 0.01 0.00 91 1014.0
20260902142729 76 58 7.0 20.9 0.00 0.01 0.00 91 1014.0
20260902142240 76 133 7.8 17.4 0.00 0.01 0.00 90 1014.1
20260902142234 76 106 8.7 20.9 0.00 0.01 0.00 91 1014.1
20260902141818 76 133 7.8 17.4 0.00 0.01 0.00 90 1014.1
20260902141500 76 66 5.2 18.2 0.00 0.01 0.00 90 1013.9
20260902140732 76 62 7.0 24.3 0.00 0.00 0.00 89 1014.1
20260902140230 77 99 12.2 24.3 0.00 0.00 0.00 88 1014.1
20260902135729 77 58 9.6 20.9 0.00 0.00 0.00 88 1014.2
20260902135229 78 61 7.8 20.9 0.00 0.00 0.00 87 1014.3
20260902134729 78 101 6.1 16.5 0.00 0.00 0.00 87 1014.2
20260902134459 78 26 4.3 16.5 0.00 0.00 0.00 86 1014.0
20260902133959 78 128 9.6 20.0 0.00 0.00 0.00 87 1014.0
20260902133500 78 82 8.7 20.0 0.00 0.00 0.00 87 1014.0
20260902132729 78 46 11.3 17.4 0.00 0.00 0.00 87 1013.9
20260902132228 78 56 8.7 16.5 0.00 0.00 0.00 87 1014.0
20260902131948 78 58 7.0 16.5 0.00 0.00 0.00 87 1013.9
20260902131217 78 79 5.2 13.9 0.00 0.00 0.00 87 1014.0
20260902130717 78 83 4.3 13.9 0.00 0.00 0.00 87 1014.0
20260902130217 78 90 7.0 17.4 0.00 0.00 0.00 87 1014.1
20260902125948 78 73 10.4 17.4 0.00 0.00 0.00 87 1014.2
20260902125219 78 78 9.6 18.2 0.00 0.00 0.00 86 1014.1
20260902124718 78 73 3.5 18.2 0.00 0.00 0.00 86 1014.2
20260902124217 78 85 9.6 12.2 0.00 0.00 0.00 86 1014.3
20260902123705 78 30 3.5 14.8 0.00 0.00 0.00 86 1014.5
20260902123204 78 103 7.0 14.8 0.00 0.00 0.00 86 1014.4
20260902122705 78 97 9.6 14.8 0.00 0.00 0.00 87 1014.3
20260902122204 78 30 5.2 13.0 0.00 0.00 0.00 87 1014.4
20260902121704 78 47 6.1 13.9 0.00 0.00 0.00 87 1014.5
20260902121205 78 97 7.8 14.8 0.00 0.00 0.00 87 1014.7
20260902120936 78 79 7.8 17.4 0.00 0.00 0.00 87 1014.6
20260902120205 78 95 7.0 17.4 0.00 0.00 0.00 86 1014.5
20260902115705 78 73 7.0 18.2 0.00 0.00 0.00 87 1014.7
20260902115437 78 73 5.2 18.2 0.00 0.00 0.00 87 1014.5
20260902114937 78 69 11.3 16.5 0.00 0.00 0.00 87 1014.7
20260902114204 77 79 0.9 13.9 0.00 0.00 0.00 87 1014.7
20260902113704 77 89 9.6 13.9 0.00 0.00 0.00 88 1014.6
20260902113205 77 70 6.1 13.0 0.00 0.00 0.00 88 1014.9
20260902112704 77 84 7.8 14.8 0.00 0.00 0.00 88 1014.9
20260902112435 76 109 7.8 18.2 0.00 0.00 0.00 87 1014.7
20260902111704 77 119 11.3 18.2 0.00 0.00 0.00 87 1014.9
20260902111205 77 88 6.1 21.7 0.00 0.00 0.00 86 1015.1
20260902110705 78 95 7.0 21.7 0.00 0.00 0.00 85 1015.1
20260902110204 79 94 8.7 14.8 0.00 0.00 0.00 85 1015.0
20260902105705 79 76 5.2 14.8 0.00 0.00 0.00 85 1015.1
20260902105204 78 58 8.7 14.8 0.00 0.00 0.00 84 1015.1
20260902104936 78 94 10.4 14.8 0.00 0.00 0.00 83 1015.2
20260902104205 78 128 6.1 14.8 0.00 0.00 0.00 83 1015.1
20260902103704 78 85 7.0 18.2 0.00 0.00 0.00 84 1015.0
20260902103204 78 69 7.8 18.2 0.00 0.00 0.00 83 1015.4
20260902102704 78 64 7.0 14.8 0.00 0.00 0.00 84 1015.2
20260902102204 78 93 4.3 13.0 0.00 0.00 0.00 84 1015.4
20260902101936 78 96 5.2 16.5 0.00 0.00 0.00 85 1015.3
20260902101205 78 72 7.0 16.5 0.00 0.00 0.00 84 1015.3
20260902100704 78 87 7.8 14.8 0.00 0.00 0.00 84 1015.2
20260902100436 78 80 3.5 13.9 0.00 0.00 0.00 84 1015.1
20260902095705 78 82 5.2 14.8 0.00 0.00 0.00 84 1015.5
20260902095205 78 119 4.3 20.9 0.00 0.00 0.00 84 1015.2
20260902094653 78 101 8.7 20.9 0.00 0.00 0.00 83 1015.4
20260902094152 78 77 5.2 13.9 0.00 0.00 0.00 84 1015.2
20260902093652 78 91 7.8 13.9 0.00 0.00 0.00 83 1015.3
20260902093153 78 105 8.7 14.8 0.00 0.00 0.00 83 1015.6
20260902092653 78 87 7.0 14.8 0.00 0.00 0.00 83 1015.7
20260902092152 78 101 5.2 14.8 0.00 0.00 0.00 82 1015.6
20260902091654 78 101 4.3 13.0 0.00 0.00 0.00 83 1015.6
20260902091153 78 93 5.2 13.9 0.00 0.00 0.00 83 1015.8
20260902090653 78 125 8.7 13.9 0.00 0.00 0.00 83 1015.7
20260902090424 78 75 3.5 14.8 0.00 0.00 0.00 83 1015.9
20260902085653 78 109 5.2 17.4 0.00 0.00 0.00 83 1015.9
20260902085155 78 94 7.0 18.2 0.00 0.00 0.00 83 1015.8
20260902084653 78 79 8.7 18.2 0.00 0.00 0.00 82 1015.8
20260902084152 78 106 10.4 16.5 0.00 0.00 0.00 83 1016.0
20260902083652 78 118 9.6 13.9 0.00 0.00 0.00 83 1015.9
20260902083152 78 88 7.8 13.9 0.00 0.00 0.00 83 1015.7
20260902082655 78 54 3.5 14.8 0.00 0.00 0.00 84 1015.7
20260902082153 78 115 7.8 14.8 0.00 0.00 0.00 84 1015.8
20260902081653 78 59 7.0 18.2 0.00 0.00 0.00 83 1016.0
20260902081424 78 101 11.3 18.2 0.00 0.00 0.00 84 1015.9
20260902081301 78 87 6.1 16.5 0.00 0.00 0.00 84 1016.2
20260902080425 78 102 8.7 16.5 0.00 0.00 0.00 84 1015.9
20260902075653 78 52 6.1 16.5 0.00 0.00 0.00 85 1016.0
20260902075152 78 82 6.1 16.5 0.00 0.00 0.00 85 1016.2
20260902074651 78 115 7.8 13.9 0.00 0.00 0.00 86 1016.1
20260902074157 78 69 8.7 16.5 0.00 0.00 0.00 85 1016.2
20260902074151 78 77 7.8 16.5 0.00 0.00 0.00 85 1015.9
20260902073149 78 77 9.6 16.5 0.00 0.00 0.00 85 1016.2
20260902072648 78 105 7.8 13.9 0.00 0.00 0.00 84 1015.8
20260902072417 78 65 7.8 16.5 0.00 0.00 0.00 84 1015.8
20260902071645 78 51 7.0 16.5 0.00 0.00 0.00 84 1016.0
20260902071146 78 84 4.3 14.8 0.00 0.00 0.00 84 1015.9
20260902070646 78 95 7.0 13.9 0.00 0.00 0.00 84 1016.0
20260902070146 78 92 8.7 16.5 0.00 0.00 0.00 85 1016.0
20260902065645 78 114 4.3 17.4 0.00 0.00 0.00 84 1015.4
20260902065417 78 75 12.2 17.4 0.00 0.00 0.00 85 1015.7
20260902064645 78 94 4.3 14.8 0.00 0.00 0.00 86 1015.7
20260902064151 78 84 5.2 14.8 0.00 0.00 0.00 85 1015.6
20260902064145 78 116 3.5 13.9 0.00 0.00 0.00 85 1015.6
20260902063146 78 61 8.7 14.8 0.00 0.00 0.00 85 1015.5
20260902062645 78 87 6.1 13.0 0.00 0.00 0.00 85 1015.6
20260902062145 78 94 7.0 14.8 0.00 0.00 0.00 83 1015.5
20260902061915 78 66 7.8 14.8 0.00 0.00 0.00 84 1015.6
20260902061404 78 125 10.4 16.5 0.00 0.00 0.00 84 1015.6
20260902060903 78 82 5.2 16.5 0.00 0.00 0.00 83 1015.5
20260902060138 78 89 7.0 13.9 0.00 0.00 0.00 83 1015.4
20260902060132 79 87 8.7 13.9 0.00 0.00 0.00 84 1015.4
20260902055402 78 90 7.8 18.2 0.00 0.00 0.00 83 1015.4
20260902054632 78 77 9.6 18.2 0.00 0.00 0.00 83 1015.3
20260902054132 78 87 7.0 13.9 0.00 0.00 0.00 83 1015.4
20260902053902 78 65 6.1 14.8 0.00 0.00 0.00 85 1015.4
20260902053402 78 68 3.5 14.8 0.00 0.00 0.00 86 1015.2
20260902052631 78 70 4.3 17.4 0.00 0.00 0.00 86 1015.3
20260902052130 77 61 12.2 17.4 0.00 0.00 0.00 85 1015.3
20260902051901 77 62 7.8 16.5 0.00 0.00 0.00 85 1015.3
20260902051401 77 77 7.0 17.4 0.00 0.00 0.00 85 1015.1
20260902050629 76 71 5.2 17.4 0.00 0.00 0.00 85 1015.1
20260902050358 77 114 7.8 13.9 0.00 0.00 0.00 86 1015.2
20260902045627 77 91 7.0 14.8 0.00 0.00 0.00 87 1015.1
20260902045128 77 33 5.2 14.8 0.00 0.00 0.00 87 1015.2
20260902044627 77 86 7.0 20.0 0.00 0.00 0.00 86 1015.1
20260902044356 78 105 10.4 20.0 0.00 0.00 0.00 84 1015.0
20260902043626 78 58 12.2 17.4 0.00 0.00 0.00 82 1014.7
20260902043125 79 94 7.8 13.9 0.00 0.00 0.00 83 1014.8
20260902042857 79 55 4.3 13.9 0.00 0.00 0.00 82 1014.8
20260902042125 79 98 7.8 16.5 0.00 0.00 0.00 82 1014.7
20260902041624 79 78 7.0 16.5 0.00 0.00 0.00 81 1014.5
20260902041127 79 23 7.8 14.8 0.00 0.00 0.00 81 1014.8
20260902040625 79 108 6.1 13.0 0.00 0.00 0.00 80 1014.6
20260902040356 79 33 6.1 13.0 0.00 0.00 0.00 80 1014.8
20260902035626 78 90 3.5 13.0 0.00 0.00 0.00 79 1014.7
20260902035124 78 86 7.0 13.0 0.00 0.00 0.00 80 1014.8
20260902034626 78 86 6.1 14.8 0.00 0.00 0.00 80 1014.9
20260902034124 78 75 7.0 17.4 0.00 0.00 0.00 82 1015.1
20260902033624 78 73 12.2 20.0 0.00 0.00 0.00 82 1014.9
20260902033125 79 48 7.0 20.0 0.00 0.00 0.00 82 1015.1
20260902032625 79 80 11.3 18.2 0.00 0.00 0.00 79 1014.9
20260902032125 79 64 7.0 16.5 0.00 0.00 0.00 79 1015.3
20260902031625 79 76 8.7 13.0 0.00 0.00 0.00 78 1015.1
20260902031125 79 55 6.1 14.8 0.00 0.00 0.00 79 1015.2
20260902030624 79 76 8.7 14.8 0.00 0.00 0.00 80 1015.0
20260902030124 79 111 5.2 16.5 0.00 0.00 0.00 81 1015.3
20260902025856 80 88 10.4 18.2 0.00 0.00 0.00 80 1015.0
20260902025124 80 76 7.0 18.2 0.00 0.00 0.00 79 1015.0
20260902024626 81 84 9.6 18.2 0.00 0.00 0.00 79 1014.8
20260902024124 80 86 7.8 18.2 0.00 0.00 0.00 75 1014.8
20260902023613 81 110 9.6 16.5 0.00 0.00 0.00 77 1014.9
20260902023113 80 106 10.4 16.5 0.00 0.00 0.00 76 1014.9
20260902022613 81 73 8.7 16.5 0.00 0.00 0.00 78 1014.8
20260902022113 81 53 6.1 16.5 0.00 0.00 0.00 78 1014.7
20260902021613 81 79 7.0 17.4 0.00 0.00 0.00 77 1014.9
20260902021113 81 105 7.8 18.2 0.00 0.00 0.00 76 1014.9
20260902020613 81 35 7.8 18.2 0.00 0.00 0.00 78 1014.7
20260902020344 81 66 3.5 16.5 0.00 0.00 0.00 78 1014.9
20260902015613 81 75 5.2 18.2 0.00 0.00 0.00 79 1014.9
20260902015113 81 89 9.6 18.2 0.00 0.00 0.00 77 1014.9
20260902014613 81 58 7.8 16.5 0.00 0.00 0.00 77 1015.0
20260902014112 81 84 8.7 16.5 0.00 0.00 0.00 76 1015.1
20260902013843 81 108 7.8 16.5 0.00 0.00 0.00 77 1015.0
20260902013112 81 73 8.7 16.5 0.00 0.00 0.00 76 1015.0
20260902012612 82 78 12.2 18.2 0.00 0.00 0.00 76 1015.3
20260902012112 82 88 10.4 18.2 0.00 0.00 0.00 77 1015.0
20260902011611 82 64 7.8 24.3 0.00 0.00 0.00 75 1015.1
20260902011111 82 80 7.8 24.3 0.00 0.00 0.00 75 1014.9
20260902010611 82 82 7.8 17.4 0.00 0.00 0.00 76 1015.1
20260902010111 82 100 9.6 20.0 0.00 0.00 0.00 76 1015.0
20260902005612 82 84 12.2 20.0 0.00 0.00 0.00 76 1015.1
20260902005111 82 50 7.8 18.2 0.00 0.00 0.00 77 1015.2
20260902004612 82 47 7.0 18.2 0.00 0.00 0.00 75 1015.3
20260902004111 82 56 12.2 16.5 0.00 0.00 0.00 75 1015.4
20260902003612 82 54 8.7 16.5 0.00 0.00 0.00 76 1015.3
20260902003112 82 53 12.2 18.2 0.00 0.00 0.00 75 1015.2
20260902002612 82 76 9.6 20.9 0.00 0.00 0.00 75 1015.3
20260902002112 82 91 8.7 20.9 0.00 0.00 0.00 75 1015.3
20260902001600 82 49 6.1 18.2 0.00 0.00 0.00 76 1015.4
20260902001100 82 47 12.2 17.4 0.00 0.00 0.00 78 1015.4
20260902000600 82 83 10.4 16.5 0.00 0.00 0.00 78 1015.2
20260902000100 82 86 7.0 16.5 0.00 0.00 0.00 76 1015.2
20260901235600 82 63 10.4 16.5 0.00 0.00 0.00 79 1015.4
20260901235100 82 62 10.4 16.5 0.00 0.00 0.00 78 1015.5
20260901234600 83 41 8.7 16.5 0.00 0.00 0.00 77 1015.6
20260901234318 83 74 9.6 16.5 0.00 0.00 0.00 76 1015.6
20260901233549 83 82 9.6 14.8 0.00 0.00 0.00 75 1015.6
20260901233036 83 56 6.1 20.0 0.00 0.00 0.00 76 1015.6
20260901232807 83 69 10.4 20.0 0.00 0.00 0.00 74 1015.6
20260901232023 83 75 10.4 16.5 0.00 0.00 0.00 74 1015.7
20260901231524 83 53 7.8 17.4 0.00 0.00 0.00 76 1015.9
20260901231024 83 77 8.7 22.6 0.00 0.00 0.00 75 1015.8
20260901230523 83 77 10.4 22.6 0.00 0.00 0.00 73 1016.1
20260901230024 83 91 9.6 20.0 0.00 0.00 0.00 74 1015.9
20260901225524 83 76 7.8 20.0 0.00 0.00 0.00 74 1016.1
20260901225024 83 101 12.2 17.4 0.00 0.00 0.00 74 1016.1
20260901224755 83 104 7.8 18.2 0.00 0.00 0.00 74 1016.1
20260901224024 83 91 7.8 18.2 0.00 0.00 0.00 74 1016.1
20260901223524 83 69 7.8 20.0 0.00 0.00 0.00 75 1016.0
20260901223026 83 60 6.1 20.0 0.00 0.00 0.00 75 1016.1
20260901222523 83 30 7.0 18.2 0.00 0.00 0.00 74 1016.0
20260901222024 84 83 8.7 16.5 0.00 0.00 0.00 75 1016.0
20260901221755 82 102 7.0 16.5 0.00 0.00 0.00 76 1016.1
20260901221629 82 36 5.2 16.5 0.00 0.00 0.00 75 1016.2
20260901220523 83 67 9.6 20.0 0.00 0.00 0.00 76 1016.2
20260901220255 82 64 10.4 20.0 0.00 0.00 0.00 75 1016.5
20260901215518 82 83 9.6 18.2 0.00 0.00 0.00 77 1016.4
20260901215012 82 58 5.2 20.9 0.00 0.00 0.00 76 1016.4
20260901214511 83 78 6.1 20.9 0.00 0.00 0.00 76 1016.6
20260901214011 82 28 7.8 16.5 0.00 0.00 0.00 77 1016.3
20260901213512 81 57 10.4 14.8 0.00 0.00 0.00 78 1016.7
20260901213011 81 44 5.2 17.4 0.00 0.00 0.00 77 1016.5
20260901212512 82 58 7.8 17.4 0.00 0.00 0.00 78 1016.6
20260901212243 82 33 12.2 16.5 0.00 0.00 0.00 77 1016.7
20260901211511 82 95 8.7 16.5 0.00 0.00 0.00 77 1016.7
20260901211011 82 27 8.7 16.5 0.00 0.00 0.00 77 1016.7
20260901210512 82 82 7.8 16.5 0.00 0.00 0.00 76 1016.9
20260901210243 82 56 9.6 14.8 0.00 0.00 0.00 75 1016.8
20260901205518 82 76 6.1 13.9 0.00 0.00 0.00 76 1016.9
20260901205512 82 41 7.0 14.8 0.00 0.00 0.00 77 1016.5